Weather History for Friday Harbor, WA

Change the Weather History Date:

Sunday, December 8, 2013

  Actual Average Record
Temperature  
Mean Temperature 26 °F -  
Max Temperature 33 °F 45 °F 55 °F (2014)
Min Temperature 19 °F 36 °F 19 °F (2013)
Degree Days  
Heating Degree Days 39    
Moisture  
Dew Point 17 °F    
Average Humidity 67    
Maximum Humidity 82    
Minimum Humidity 52    
Precipitation  
Precipitation 0.00 in - - ()
Sea Level Pressure  
Sea Level Pressure 30.51 in    
Wind  
Wind Speed 3 mph (ESE)    
Max Wind Speed 9 mph    
Max Gust Speed -    
Visibility 10 miles    
Events      
Averages and records for this station are not official NWS values.
T = Trace of Precipitation, MM = Missing Value Source: NWS Daily Summary

Daily Weather History Graph

Daily Weather History Graph

Search for Another Location

Airport:

Trip Planner

Search our weather history database for the weather conditions in past years. The results will help you decide how hot, cold, wet, or windy it might be!

Date:

Astronomy

Dec. 08, 2013 Rise Set
Actual Time 7:51 AM PST 4:16 PM PST
Civil Twilight 7:14 AM PST 4:53 PM PST
Nautical Twilight 6:35 AM PST 5:33 PM PST
Astronomical Twilight 5:56 AM PST 6:11 PM PST
Moon 11:51 AM PST (12/8) 11:38 PM PST (12/8)
Length of Visible Light 9h 38m
Length of Day
8h 25m
Waxing Crescent, 41% of the Moon is Illuminated
Dec 8
Waxing Crescent
Dec 9
First Quarter
Dec 17
Full
Dec 25
Last Quarter
Jan 1
New

Hourly Weather History & Observations

Time (PST) Temp. Windchill Dew Point Humidity Pressure Visibility Wind Dir Wind Speed Gust Speed Precip Events Conditions
12:53 AM 19.0 °F - 12.9 °F 77% 30.43 in 10.0 mi Calm Calm - N/A   Clear
1:53 AM 21.9 °F - 15.1 °F 75% 30.45 in 10.0 mi Calm Calm - N/A   Clear
2:53 AM 27.0 °F 20.5 °F 17.1 °F 66% 30.45 in 10.0 mi ESE 5.8 mph - N/A   Clear
3:53 AM 27.0 °F 18.7 °F 17.1 °F 66% 30.45 in 10.0 mi ESE 8.1 mph - N/A   Clear
4:53 AM 27.0 °F 18.0 °F 16.0 °F 63% 30.45 in 10.0 mi ESE 9.2 mph - N/A   Clear
5:53 AM 27.0 °F 18.7 °F 17.1 °F 66% 30.47 in 10.0 mi ESE 8.1 mph - N/A   Mostly Cloudy
6:53 AM 27.0 °F 19.5 °F 16.0 °F 63% 30.48 in 10.0 mi East 6.9 mph - N/A   Clear
7:53 AM 27.0 °F 19.5 °F 17.1 °F 66% 30.50 in 10.0 mi East 6.9 mph - N/A   Clear
8:53 AM 27.0 °F 19.5 °F 17.1 °F 66% 30.51 in 10.0 mi ESE 6.9 mph - N/A   Clear
9:53 AM 30.0 °F 23.2 °F 19.0 °F 64% 30.53 in 10.0 mi East 6.9 mph - N/A   Clear
10:53 AM 32.0 °F 26.4 °F 19.0 °F 59% 30.52 in 10.0 mi ENE 5.8 mph - N/A   Clear
11:53 AM 33.1 °F 27.7 °F 18.0 °F 54% 30.53 in 10.0 mi SE 5.8 mph - N/A   Mostly Cloudy
12:53 PM 33.1 °F 30.0 °F 18.0 °F 54% 30.52 in 10.0 mi South 3.5 mph - N/A   Clear
1:53 PM 33.1 °F - 18.0 °F 54% 30.53 in 10.0 mi Calm Calm - N/A   Overcast
2:53 PM 33.1 °F - 17.1 °F 52% 30.53 in 10.0 mi Calm Calm - N/A   Mostly Cloudy
3:53 PM 28.9 °F - 17.1 °F 61% 30.55 in 10.0 mi Calm Calm - N/A   Clear
4:53 PM 25.0 °F - 17.1 °F 72% 30.55 in 10.0 mi Calm Calm - N/A   Clear
5:53 PM 24.1 °F 19.7 °F 17.1 °F 75% 30.54 in 10.0 mi West 3.5 mph - N/A   Clear
6:53 PM 21.9 °F - 16.0 °F 78% 30.53 in 10.0 mi Calm Calm - N/A   Clear
7:53 PM 21.9 °F - 17.1 °F 82% 30.54 in 10.0 mi Calm Calm - N/A   Clear
8:53 PM 24.1 °F - 18.0 °F 77% 30.56 in 10.0 mi Calm Calm - N/A   Overcast
9:53 PM 25.0 °F - 19.9 °F 81% 30.57 in 10.0 mi Calm Calm - N/A   Overcast
10:53 PM 28.0 °F 24.2 °F 19.9 °F 72% 30.56 in 10.0 mi South 3.5 mph - N/A   Overcast
11:53 PM 30.0 °F - 21.9 °F 72% 30.57 in 10.0 mi Calm Calm - N/A   Overcast